This is the latest recevied weather packets stored in our database for station/object KD8FRE. If no packets are shown the sender has not sent any weather packets the latest 10 day(s).
| Time | Temp. | Humidity | Pressure | Rain* | Wind** | Luminosity | Snow |
|---|---|---|---|---|---|---|---|
| 1777676523 | 6.67° C | 61% | 1015.3 hPa | 0 mm | - | 38 W/m² | - |
| 1777676220 | 6.67° C | 60% | 1015.5 hPa | 0 mm | - | 48 W/m² | - |
| 1777675916 | 6.67° C | 61% | 1015.2 hPa | 0 mm | - | 58 W/m² | - |
| 1777675613 | 6.67° C | 61% | 1015.4 hPa | 0 mm | - | 58 W/m² | - |
| 1777675310 | 6.67° C | 60% | 1015.3 hPa | 0 mm | - | 70 W/m² | - |
| 1777675007 | 7.22° C | 61% | 1015.5 hPa | 0 mm | - | 95 W/m² | - |
| 1777674704 | 7.22° C | 61% | 1015.3 hPa | 0 mm | - | 104 W/m² | - |
| 1777674399 | 6.67° C | 62% | 1015.4 hPa | 0 mm | - | 93 W/m² | - |
| 1777674097 | 6.67° C | 62% | 1015.3 hPa | 0 mm | - | 62 W/m² | - |
| 1777673793 | 6.67° C | 61% | 1015.2 hPa | 0 mm | - | 61 W/m² | - |
| 1777673491 | 6.67° C | 60% | 1015.2 hPa | 0 mm | - | 57 W/m² | - |
| 1777673188 | 6.67° C | 62% | 1015.3 hPa | 0 mm | - | 39 W/m² | - |
| 1777672885 | 6.67° C | 61% | 1015.2 hPa | 0 mm | - | 29 W/m² | - |
| 1777672582 | 6.67° C | 62% | 1015.4 hPa | 0 mm | - | 32 W/m² | - |
| 1777672277 | 7.22° C | 61% | 1015.2 hPa | 0 mm | - | 39 W/m² | - |
| 1777671972 | 7.22° C | 59% | 1015 hPa | 0 mm | - | 45 W/m² | - |
| 1777671668 | 7.22° C | 57% | 1015 hPa | 0 mm | - | 63 W/m² | - |
| 1777671365 | 7.22° C | 56% | 1015 hPa | 0 mm | - | 69 W/m² | - |
| 1777671061 | 7.78° C | 56% | 1014.9 hPa | 0 mm | - | 60 W/m² | - |
| 1777670757 | 7.78° C | 55% | 1014.9 hPa | 0 mm | - | 63 W/m² | - |
| 1777670454 | 7.78° C | 57% | 1014.7 hPa | 0 mm | - | 72 W/m² | - |
| 1777670151 | 7.78° C | 56% | 1014.8 hPa | 0 mm | - | 51 W/m² | - |
| 1777669849 | 7.78° C | 56% | 1014.7 hPa | 0 mm | - | 48 W/m² | - |
| 1777669545 | 7.78° C | 54% | 1014.6 hPa | 0 mm | - | 42 W/m² | - |
| 1777669242 | 7.78° C | 54% | 1014.5 hPa | 0 mm | - | 38 W/m² | - |
* Rain latest hour (hover to see other rain measurements)
** Current wind speed in m/s (hover to see current wind gust speed)